| time (UTC) | temp C | wind direction | speed KPH | gust KPH | rain 1hr cm | rain 24hr cm | rain mn cm | humidity % | barometer mb |
| 20260502221135 | 10 | 294 | 3.2 | 9.7 | 0.00 | 0.00 | 0.00 | 37 | 1015.7 |
| 20260502220632 | 10 | 280 | 17.7 | 25.7 | 0.00 | 0.00 | 0.00 | 36 | 1015.8 |
| 20260502220128 | 10 | 274 | 14.5 | 20.9 | 0.00 | 0.00 | 0.00 | 38 | 1015.8 |
| 20260502215625 | 10 | 205 | 9.7 | 14.5 | 0.00 | 0.00 | 0.00 | 38 | 1015.8 |
| 20260502215122 | 9 | 196 | 17.7 | 20.9 | 0.00 | 0.00 | 0.00 | 39 | 1015.9 |
| 20260502214619 | 10 | 289 | 11.3 | 29.0 | 0.00 | 0.00 | 0.00 | 36 | 1015.7 |
| 20260502214116 | 10 | 288 | 8.0 | 16.1 | 0.00 | 0.00 | 0.00 | 38 | 1015.8 |
| 20260502213614 | 10 | 282 | 12.9 | 16.1 | 0.00 | 0.00 | 0.00 | 37 | 1015.8 |
| 20260502213110 | 10 | 260 | 14.5 | 16.1 | 0.00 | 0.00 | 0.00 | 38 | 1015.9 |
| 20260502212610 | 10 | 292 | 4.8 | 12.9 | 0.00 | 0.00 | 0.00 | 37 | 1015.8 |
| 20260502212107 | 10 | 310 | 8.0 | 14.5 | 0.00 | 0.00 | 0.00 | 37 | 1015.8 |
| 20260502211602 | 10 | 275 | 9.7 | 14.5 | 0.00 | 0.00 | 0.00 | 38 | 1015.7 |
| 20260502211059 | 9 | 311 | 3.2 | 12.9 | 0.00 | 0.00 | 0.00 | 39 | 1016.2 |
| 20260502210557 | 10 | 245 | 9.7 | 17.7 | 0.00 | 0.00 | 0.00 | 39 | 1016.1 |
| 20260502210054 | 9 | 277 | 3.2 | 9.7 | 0.00 | 0.00 | 0.00 | 40 | 1016.1 |
| 20260502205550 | 10 | 287 | 9.7 | 11.3 | 0.00 | 0.00 | 0.00 | 39 | 1015.9 |
| 20260502205047 | 9 | 225 | 6.4 | 12.9 | 0.00 | 0.00 | 0.00 | 40 | 1016.1 |
| 20260502204544 | 9 | 310 | 6.4 | 14.5 | 0.00 | 0.00 | 0.00 | 39 | 1016.2 |
| 20260502204042 | 9 | 245 | 11.3 | 20.9 | 0.00 | 0.00 | 0.00 | 37 | 1016.2 |
| 20260502203539 | 10 | 286 | 4.8 | 16.1 | 0.00 | 0.00 | 0.00 | 39 | 1016.3 |
| 20260502203036 | 9 | 228 | 8.0 | 12.9 | 0.00 | 0.00 | 0.00 | 42 | 1016.3 |
| 20260502202532 | 9 | 280 | 1.6 | 20.9 | 0.00 | 0.00 | 0.00 | 39 | 1016.4 |
| 20260502202030 | 9 | 262 | 9.7 | 16.1 | 0.00 | 0.00 | 0.00 | 40 | 1016.4 |
| 20260502201526 | 9 | 273 | 14.5 | 30.6 | 0.00 | 0.00 | 0.00 | 39 | 1016.5 |
| 20260502201022 | 9 | 237 | 17.7 | 20.9 | 0.00 | 0.00 | 0.00 | 39 | 1016.5 |
| 20260502200518 | 9 | 202 | 11.3 | 16.1 | 0.00 | 0.00 | 0.00 | 40 | 1016.4 |
| 20260502200016 | 9 | 191 | 9.7 | 16.1 | 0.00 | 0.00 | 0.00 | 41 | 1016.7 |
| 20260502195514 | 8 | 263 | 3.2 | 6.4 | 0.00 | 0.00 | 0.00 | 41 | 1016.8 |
| 20260502195009 | 8 | 237 | 14.5 | 20.9 | 0.00 | 0.00 | 0.00 | 40 | 1016.7 |
| 20260502194507 | 8 | 290 | 3.2 | 6.4 | 0.00 | 0.00 | 0.00 | 41 | 1016.9 |
| 20260502194002 | 8 | 284 | 6.4 | 11.3 | 0.00 | 0.00 | 0.00 | 40 | 1017.0 |
| 20260502193500 | 8 | 276 | 4.8 | 12.9 | 0.00 | 0.00 | 0.00 | 40 | 1017.0 |
| 20260502192955 | 8 | 287 | 8.0 | 14.5 | 0.00 | 0.00 | 0.00 | 39 | 1017.1 |
| 20260502192452 | 9 | 174 | 1.6 | 4.8 | 0.00 | 0.00 | 0.00 | 41 | 1017.2 |
| 20260502191949 | 9 | 238 | 8.0 | 14.5 | 0.00 | 0.00 | 0.00 | 41 | 1017.2 |
| 20260502191447 | 8 | 304 | 4.8 | 22.5 | 0.00 | 0.00 | 0.00 | 41 | 1017.2 |
| 20260502190944 | 8 | 319 | 6.4 | 11.3 | 0.00 | 0.00 | 0.00 | 42 | 1017.4 |
| 20260502190442 | 8 | 288 | 9.7 | 16.1 | 0.00 | 0.00 | 0.00 | 41 | 1017.4 |
| 20260502185938 | 8 | 271 | 6.4 | 12.9 | 0.00 | 0.00 | 0.00 | 43 | 1017.4 |
| 20260502185433 | 8 | 305 | 8.0 | 12.9 | 0.00 | 0.00 | 0.00 | 41 | 1017.8 |
| 20260502184931 | 8 | 318 | 4.8 | 9.7 | 0.00 | 0.00 | 0.00 | 40 | 1017.6 |
| 20260502184426 | 9 | 228 | 14.5 | 22.5 | 0.00 | 0.00 | 0.00 | 38 | 1017.4 |
| 20260502183922 | 8 | 286 | 6.4 | 14.5 | 0.00 | 0.00 | 0.00 | 45 | 1017.6 |
| 20260502183419 | 8 | 257 | 12.9 | 16.1 | 0.00 | 0.00 | 0.00 | 44 | 1017.7 |
| 20260502182914 | 7 | 288 | 8.0 | 9.7 | 0.00 | 0.00 | 0.00 | 42 | 1017.9 |
| 20260502182410 | 7 | 277 | 11.3 | 16.1 | 0.00 | 0.00 | 0.00 | 41 | 1017.9 |
| 20260502181906 | 8 | 274 | 6.4 | 9.7 | 0.00 | 0.00 | 0.00 | 40 | 1017.9 |
| 20260502181405 | 9 | 280 | 11.3 | 14.5 | 0.00 | 0.00 | 0.00 | 38 | 1017.9 |
| 20260502180903 | 8 | 314 | 1.6 | 11.3 | 0.00 | 0.00 | 0.00 | 39 | 1017.9 |
| 20260502180400 | 8 | 290 | 3.2 | 16.1 | 0.00 | 0.00 | 0.00 | 43 | 1017.8 |
| 20260502170318 | 7 | 308 | 14.5 | 16.1 | 0.00 | 0.00 | 0.00 | 44 | 1018.4 |
| 20260502164306 | 7 | 307 | 6.4 | 9.7 | 0.00 | 0.00 | 0.00 | 42 | 1018.5 |
| 20260502163802 | 7 | 246 | 9.7 | 17.7 | 0.00 | 0.00 | 0.00 | 42 | 1018.5 |
| 20260502163258 | 7 | 270 | 6.4 | 9.7 | 0.00 | 0.00 | 0.00 | 43 | 1018.7 |
| 20260502162755 | 8 | 106 | 1.6 | 6.4 | 0.00 | 0.00 | 0.00 | 41 | 1018.6 |
| 20260502162252 | 7 | 57 | 3.2 | 11.3 | 0.00 | 0.00 | 0.00 | 43 | 1018.5 |
| 20260502161749 | 6 | 329 | 6.4 | 11.3 | 0.00 | 0.00 | 0.00 | 45 | 1018.7 |
| 20260502161245 | 6 | 338 | 11.3 | 14.5 | 0.00 | 0.00 | 0.00 | 45 | 1018.9 |
| 20260502160744 | 6 | 253 | 8.0 | 11.3 | 0.00 | 0.00 | 0.00 | 47 | 1018.8 |
| 20260502160243 | 7 | 353 | 1.6 | 9.7 | 0.00 | 0.00 | 0.00 | 44 | 1018.6 |
| 20260502152212 | 7 | 293 | 9.7 | 12.9 | 0.00 | 0.00 | 0.00 | 45 | 1018.8 |
| 20260502151709 | 7 | 234 | 1.6 | 11.3 | 0.00 | 0.00 | 0.00 | 43 | 1018.7 |
| 20260502151206 | 6 | 124 | 1.6 | 20.9 | 0.00 | 0.00 | 0.00 | 45 | 1018.7 |
| 20260502150704 | 6 | 269 | 6.4 | 11.3 | 0.00 | 0.00 | 0.00 | 45 | 1018.7 |
| 20260502150200 | 6 | 151 | 3.2 | 6.4 | 0.00 | 0.00 | 0.00 | 49 | 1018.7 |
| 20260502140123 | 6 | 269 | 6.4 | 9.7 | 0.00 | 0.00 | 0.00 | 50 | 1018.7 |
| 20260502130548 | 5 | 334 | 3.2 | 4.8 | 0.00 | 0.00 | 0.00 | 61 | 1018.9 |
| 20260502123532 | 3 | 328 | 1.6 | 4.8 | 0.00 | 0.00 | 0.00 | 66 | 1019.0 |
| 20260502123028 | 3 | 37 | 1.6 | 3.2 | 0.00 | 0.00 | 0.00 | 70 | 1019.2 |
| 20260502122525 | 2 | 317 | 0.0 | 0.0 | 0.00 | 0.00 | 0.00 | 73 | 1019.1 |
| 20260502122022 | 2 | 341 | 1.6 | 3.2 | 0.00 | 0.00 | 0.00 | 74 | 1019.2 |
| 20260502121519 | 2 | 31 | 0.0 | 1.6 | 0.00 | 0.00 | 0.00 | 75 | 1019.2 |
| 20260502121017 | 1 | 355 | 1.6 | 3.2 | 0.00 | 0.00 | 0.00 | 75 | 1019.3 |
| 20260502120513 | 1 | 301 | 0.0 | 0.0 | 0.00 | 0.00 | 0.00 | 77 | 1019.1 |
| 20260502115508 | 1 | 302 | 0.0 | 3.2 | 0.00 | 0.00 | 0.00 | 80 | 1019.0 |
| 20260502115003 | 0 | 301 | 3.2 | 3.2 | 0.00 | 0.00 | 0.00 | 80 | 1019.2 |
| 20260502114500 | 0 | 264 | 3.2 | 6.4 | 0.00 | 0.00 | 0.00 | 81 | 1019.0 |
| 20260502113957 | 0 | 288 | 1.6 | 3.2 | 0.00 | 0.00 | 0.00 | 81 | 1019.3 |
| 20260502113455 | 0 | 288 | 3.2 | 4.8 | 0.00 | 0.00 | 0.00 | 82 | 1019.0 |
| 20260502112953 | 0 | 291 | 1.6 | 3.2 | 0.00 | 0.00 | 0.00 | 82 | 1019.0 |
| 20260502112450 | 0 | 337 | 1.6 | 1.6 | 0.00 | 0.00 | 0.00 | 82 | 1018.9 |
| 20260502111948 | 0 | 280 | 1.6 | 3.2 | 0.00 | 0.00 | 0.00 | 82 | 1019.0 |
| 20260502111445 | 0 | 278 | 3.2 | 3.2 | 0.00 | 0.00 | 0.00 | 83 | 1018.8 |
| 20260502110942 | 0 | 271 | 4.8 | 4.8 | 0.00 | 0.00 | 0.00 | 84 | 1018.8 |
| 20260502110440 | 0 | 284 | 1.6 | 3.2 | 0.00 | 0.00 | 0.00 | 85 | 1018.9 |
| 20260502105937 | 0 | 289 | 1.6 | 1.6 | 0.00 | 0.00 | 0.00 | 84 | 1019.0 |
| 20260502105434 | 0 | 278 | 0.0 | 1.6 | 0.00 | 0.00 | 0.00 | 83 | 1018.7 |
| 20260502104932 | 0 | 303 | 1.6 | 1.6 | 0.00 | 0.00 | 0.00 | 83 | 1018.9 |
| 20260502104429 | 0 | 282 | 0.0 | 3.2 | 0.00 | 0.00 | 0.00 | 82 | 1018.8 |
| 20260502103926 | 0 | 280 | 1.6 | 4.8 | 0.00 | 0.00 | 0.00 | 81 | 1018.8 |
| 20260502103424 | 0 | 273 | 3.2 | 4.8 | 0.00 | 0.00 | 0.00 | 81 | 1018.8 |
| 20260502102921 | 0 | 278 | 1.6 | 4.8 | 0.00 | 0.00 | 0.00 | 82 | 1018.8 |
| 20260502102417 | 0 | 276 | 1.6 | 3.2 | 0.00 | 0.00 | 0.00 | 82 | 1018.7 |
| 20260502101915 | 0 | 276 | 1.6 | 3.2 | 0.00 | 0.00 | 0.00 | 81 | 1018.7 |
| 20260502101413 | 0 | 277 | 3.2 | 3.2 | 0.00 | 0.00 | 0.00 | 81 | 1018.7 |
| 20260502100911 | 0 | 291 | 1.6 | 4.8 | 0.00 | 0.00 | 0.00 | 80 | 1018.6 |
| 20260502100410 | 0 | 262 | 3.2 | 3.2 | 0.00 | 0.00 | 0.00 | 80 | 1018.7 |
| 20260502091343 | 0 | 280 | 0.0 | 1.6 | 0.00 | 0.00 | 0.00 | 79 | 1018.3 |
| 20260502090841 | 0 | 280 | 0.0 | 0.0 | 0.00 | 0.00 | 0.00 | 78 | 1018.0 |
| 20260502090338 | 0 | 280 | 1.6 | 1.6 | 0.00 | 0.00 | 0.00 | 78 | 1018.2 |
| 20260502071233 | 1 | 268 | 3.2 | 3.2 | 0.00 | 0.00 | 0.00 | 71 | 1018.0 |
| 20260502070731 | 1 | 282 | 1.6 | 1.6 | 0.00 | 0.00 | 0.00 | 71 | 1018.0 |
| 20260502070229 | 1 | 283 | 1.6 | 4.8 | 0.00 | 0.00 | 0.00 | 71 | 1018.1 |
| 20260502065727 | 1 | 289 | 1.6 | 3.2 | 0.00 | 0.00 | 0.00 | 71 | 1018.0 |
| 20260502065224 | 1 | 300 | 1.6 | 1.6 | 0.00 | 0.00 | 0.00 | 70 | 1018.0 |
| 20260502064723 | 1 | 301 | 0.0 | 0.0 | 0.00 | 0.00 | 0.00 | 69 | 1018.1 |
| 20260502064220 | 1 | 306 | 1.6 | 1.6 | 0.00 | 0.00 | 0.00 | 69 | 1018.3 |
| 20260502063718 | 2 | 306 | 1.6 | 1.6 | 0.00 | 0.00 | 0.00 | 68 | 1018.0 |
| 20260502063215 | 2 | 285 | 1.6 | 1.6 | 0.00 | 0.00 | 0.00 | 67 | 1018.2 |
| 20260502062712 | 2 | 308 | 1.6 | 3.2 | 0.00 | 0.00 | 0.00 | 66 | 1018.3 |
| 20260502062210 | 2 | 298 | 0.0 | 1.6 | 0.00 | 0.00 | 0.00 | 68 | 1018.4 |
| 20260502061708 | 2 | 298 | 0.0 | 1.6 | 0.00 | 0.00 | 0.00 | 67 | 1018.2 |
| 20260502061205 | 2 | 297 | 0.0 | 3.2 | 0.00 | 0.00 | 0.00 | 65 | 1018.1 |
| 20260502060700 | 2 | 290 | 1.6 | 1.6 | 0.00 | 0.00 | 0.00 | 64 | 1018.2 |
| 20260502060157 | 2 | 316 | 1.6 | 1.6 | 0.00 | 0.00 | 0.00 | 63 | 1018.2 |
| 20260502055655 | 2 | 312 | 1.6 | 1.6 | 0.00 | 0.00 | 0.00 | 64 | 1018.2 |
| 20260502055152 | 2 | 294 | 1.6 | 1.6 | 0.00 | 0.00 | 0.00 | 63 | 1018.1 |
| 20260502054652 | 2 | 291 | 1.6 | 3.2 | 0.00 | 0.00 | 0.00 | 62 | 1018.0 |
| 20260502054148 | 2 | 307 | 1.6 | 1.6 | 0.00 | 0.00 | 0.00 | 64 | 1018.3 |
| 20260502053646 | 3 | 280 | 0.0 | 1.6 | 0.00 | 0.00 | 0.00 | 65 | 1018.3 |
| 20260502053142 | 3 | 308 | 0.0 | 1.6 | 0.00 | 0.00 | 0.00 | 63 | 1018.4 |
| 20260502052641 | 3 | 308 | 1.6 | 1.6 | 0.00 | 0.00 | 0.00 | 63 | 1018.2 |
| 20260502052139 | 3 | 308 | 0.0 | 1.6 | 0.00 | 0.00 | 0.00 | 61 | 1018.2 |
| 20260502051637 | 3 | 321 | 0.0 | 1.6 | 0.00 | 0.00 | 0.00 | 61 | 1018.3 |
| 20260502051134 | 3 | 305 | 0.0 | 1.6 | 0.00 | 0.00 | 0.00 | 61 | 1018.2 |
| 20260502050630 | 3 | 305 | 0.0 | 0.0 | 0.00 | 0.00 | 0.00 | 61 | 1018.2 |
| 20260502050127 | 3 | 302 | 0.0 | 0.0 | 0.00 | 0.00 | 0.00 | 60 | 1018.2 |
| 20260502045624 | 3 | 302 | 0.0 | 0.0 | 0.00 | 0.00 | 0.00 | 60 | 1017.9 |
| 20260502045121 | 3 | 303 | 0.0 | 0.0 | 0.00 | 0.00 | 0.00 | 58 | 1018.1 |
| 20260502044617 | 3 | 302 | 0.0 | 1.6 | 0.00 | 0.00 | 0.00 | 58 | 1018.2 |
| 20260502044114 | 3 | 302 | 0.0 | 3.2 | 0.00 | 0.00 | 0.00 | 61 | 1018.1 |
| 20260502043612 | 3 | 322 | 0.0 | 1.6 | 0.00 | 0.00 | 0.00 | 60 | 1018.1 |
| 20260502043108 | 2 | 325 | 1.6 | 1.6 | 0.00 | 0.00 | 0.00 | 60 | 1018.0 |
| 20260502042603 | 2 | 329 | 0.0 | 0.0 | 0.00 | 0.00 | 0.00 | 60 | 1017.9 |
| 20260502042100 | 2 | 341 | 0.0 | 1.6 | 0.00 | 0.00 | 0.00 | 59 | 1018.1 |
| 20260502041558 | 3 | 332 | 0.0 | 1.6 | 0.00 | 0.00 | 0.00 | 59 | 1017.8 |
| 20260502041055 | 3 | 307 | 0.0 | 3.2 | 0.00 | 0.00 | 0.00 | 58 | 1017.8 |
| 20260502040551 | 3 | 59 | 0.0 | 3.2 | 0.00 | 0.00 | 0.00 | 57 | 1017.8 |
| 20260502040049 | 3 | 28 | 0.0 | 0.0 | 0.00 | 0.00 | 0.00 | 57 | 1017.7 |
| 20260502035544 | 3 | 347 | 0.0 | 3.2 | 0.00 | 0.00 | 0.00 | 56 | 1017.8 |
| 20260502035042 | 3 | 337 | 3.2 | 4.8 | 0.00 | 0.00 | 0.00 | 55 | 1017.9 |
| 20260502034540 | 3 | 24 | 0.0 | 1.6 | 0.00 | 0.00 | 0.00 | 55 | 1017.7 |
| 20260502034038 | 3 | 42 | 0.0 | 1.6 | 0.00 | 0.00 | 0.00 | 54 | 1017.8 |
| 20260502033536 | 4 | 19 | 0.0 | 3.2 | 0.00 | 0.00 | 0.00 | 55 | 1017.6 |
| 20260502033033 | 4 | 351 | 1.6 | 3.2 | 0.00 | 0.00 | 0.00 | 54 | 1017.8 |
| 20260502032528 | 4 | 36 | 6.4 | 12.9 | 0.00 | 0.00 | 0.00 | 53 | 1017.8 |
| 20260502032026 | 4 | 35 | 1.6 | 4.8 | 0.00 | 0.00 | 0.00 | 53 | 1017.7 |
| 20260502031524 | 4 | 58 | 4.8 | 6.4 | 0.00 | 0.00 | 0.00 | 52 | 1017.8 |
| 20260502031021 | 4 | 9 | 0.0 | 1.6 | 0.00 | 0.00 | 0.00 | 54 | 1017.4 |
| 20260502030520 | 4 | 44 | 1.6 | 3.2 | 0.00 | 0.00 | 0.00 | 55 | 1017.7 |
| 20260502030018 | 4 | 24 | 1.6 | 1.6 | 0.00 | 0.00 | 0.00 | 54 | 1017.7 |
| 20260502025515 | 4 | 333 | 0.0 | 3.2 | 0.00 | 0.00 | 0.00 | 53 | 1017.7 |
| 20260502025013 | 4 | 22 | 0.0 | 1.6 | 0.00 | 0.00 | 0.00 | 53 | 1017.4 |
| 20260502024510 | 4 | 1 | 0.0 | 1.6 | 0.00 | 0.00 | 0.00 | 53 | 1017.6 |
| 20260502024008 | 4 | 346 | 3.2 | 3.2 | 0.00 | 0.00 | 0.00 | 56 | 1017.4 |
| 20260502023505 | 4 | 331 | 1.6 | 4.8 | 0.00 | 0.00 | 0.00 | 52 | 1017.6 |
| 20260502023002 | 5 | 7 | 0.0 | 1.6 | 0.00 | 0.00 | 0.00 | 54 | 1017.2 |
| 20260502022459 | 5 | 19 | 1.6 | 3.2 | 0.00 | 0.00 | 0.00 | 53 | 1017.4 |
| 20260502021956 | 5 | 35 | 1.6 | 1.6 | 0.00 | 0.00 | 0.00 | 53 | 1017.3 |
| 20260502021453 | 5 | 15 | 0.0 | 1.6 | 0.00 | 0.00 | 0.00 | 51 | 1017.3 |
| 20260502020950 | 5 | 48 | 3.2 | 4.8 | 0.00 | 0.00 | 0.00 | 51 | 1017.4 |
| 20260502020449 | 5 | 25 | 9.7 | 11.3 | 0.00 | 0.00 | 0.00 | 51 | 1017.1 |
| 20260502015944 | 5 | 352 | 3.2 | 4.8 | 0.00 | 0.00 | 0.00 | 52 | 1017.3 |
| 20260502015443 | 5 | 42 | 1.6 | 6.4 | 0.00 | 0.00 | 0.00 | 52 | 1017.2 |
| 20260502014939 | 5 | 225 | 1.6 | 4.8 | 0.00 | 0.00 | 0.00 | 51 | 1017.1 |
| 20260502014436 | 5 | 335 | 1.6 | 6.4 | 0.00 | 0.00 | 0.00 | 52 | 1017.0 |
| 20260502013932 | 5 | 14 | 0.0 | 1.6 | 0.00 | 0.00 | 0.00 | 52 | 1017.0 |
| 20260502013428 | 5 | 66 | 0.0 | 1.6 | 0.00 | 0.00 | 0.00 | 53 | 1016.9 |
| 20260502012924 | 5 | 346 | 1.6 | 1.6 | 0.00 | 0.00 | 0.00 | 52 | 1017.1 |
| 20260502012422 | 5 | 15 | 8.0 | 11.3 | 0.00 | 0.00 | 0.00 | 50 | 1017.1 |
| 20260502011920 | 5 | 18 | 0.0 | 4.8 | 0.00 | 0.00 | 0.00 | 52 | 1016.7 |
| 20260502011415 | 5 | 309 | 0.0 | 6.4 | 0.00 | 0.00 | 0.00 | 50 | 1016.8 |
| 20260502010913 | 5 | 271 | 0.0 | 3.2 | 0.00 | 0.00 | 0.00 | 50 | 1016.9 |
| 20260502010409 | 5 | 319 | 1.6 | 3.2 | 0.00 | 0.00 | 0.00 | 50 | 1016.8 |
| 20260502005906 | 5 | 24 | 0.0 | 3.2 | 0.00 | 0.00 | 0.00 | 51 | 1016.7 |
| 20260502005404 | 5 | 59 | 4.8 | 6.4 | 0.00 | 0.00 | 0.00 | 52 | 1016.6 |
| 20260502004901 | 5 | 34 | 3.2 | 4.8 | 0.00 | 0.00 | 0.00 | 51 | 1016.5 |
| 20260502004357 | 5 | 45 | 1.6 | 3.2 | 0.00 | 0.00 | 0.00 | 51 | 1016.5 |
| 20260502003855 | 6 | 51 | 4.8 | 4.8 | 0.00 | 0.00 | 0.00 | 49 | 1016.6 |
| 20260502003352 | 6 | 46 | 3.2 | 11.3 | 0.00 | 0.00 | 0.00 | 50 | 1016.4 |
| 20260502002848 | 6 | 37 | 9.7 | 12.9 | 0.00 | 0.00 | 0.00 | 48 | 1016.4 |
| 20260502002345 | 6 | 350 | 6.4 | 11.3 | 0.00 | 0.00 | 0.00 | 46 | 1016.3 |
| 20260502001843 | 6 | 353 | 0.0 | 1.6 | 0.00 | 0.00 | 0.00 | 48 | 1016.4 |
| 20260502001340 | 6 | 0 | 0.0 | 1.6 | 0.00 | 0.00 | 0.00 | 45 | 1016.0 |
| 20260502000837 | 6 | 39 | 4.8 | 4.8 | 0.00 | 0.00 | 0.00 | 45 | 1016.2 |
| 20260502000336 | 6 | 63 | 3.2 | 3.2 | 0.00 | 0.00 | 0.00 | 46 | 1016.0 |
| 20260501235832 | 6 | 312 | 6.4 | 9.7 | 0.00 | 0.00 | 0.00 | 44 | 1016.0 |
| 20260501235327 | 6 | 300 | 1.6 | 9.7 | 0.00 | 0.00 | 0.00 | 45 | 1016.0 |
| 20260501234823 | 6 | 280 | 3.2 | 9.7 | 0.00 | 0.00 | 0.00 | 46 | 1016.0 |
| 20260501234320 | 6 | 310 | 6.4 | 12.9 | 0.00 | 0.00 | 0.00 | 44 | 1016.0 |
| 20260501233819 | 6 | 275 | 3.2 | 12.9 | 0.00 | 0.00 | 0.00 | 45 | 1015.9 |
| 20260501233316 | 6 | 348 | 3.2 | 4.8 | 0.00 | 0.00 | 0.00 | 46 | 1015.9 |
| 20260501232811 | 6 | 291 | 1.6 | 6.4 | 0.00 | 0.00 | 0.00 | 46 | 1015.9 |
| 20260501232308 | 7 | 163 | 6.4 | 9.7 | 0.00 | 0.00 | 0.00 | 45 | 1015.8 |
| 20260501231806 | 7 | 287 | 8.0 | 9.7 | 0.00 | 0.00 | 0.00 | 45 | 1015.9 |
| 20260501231304 | 7 | 306 | 6.4 | 9.7 | 0.00 | 0.00 | 0.00 | 46 | 1015.8 |
| 20260501230802 | 7 | 289 | 0.0 | 0.0 | 0.00 | 0.00 | 0.00 | 47 | 1015.7 |
| 20260501230300 | 7 | 277 | 8.0 | 9.7 | 0.00 | 0.00 | 0.00 | 46 | 1015.7 |
| 20260501225757 | 7 | 267 | 3.2 | 4.8 | 0.00 | 0.00 | 0.00 | 47 | 1015.7 |
| 20260501225255 | 7 | 304 | 4.8 | 6.4 | 0.00 | 0.00 | 0.00 | 45 | 1015.7 |
| 20260501224751 | 7 | 303 | 3.2 | 9.7 | 0.00 | 0.00 | 0.00 | 45 | 1015.9 |
| 20260501224249 | 7 | 294 | 4.8 | 6.4 | 0.00 | 0.00 | 0.00 | 47 | 1015.7 |
| 20260501223744 | 7 | 271 | 4.8 | 9.7 | 0.00 | 0.00 | 0.00 | 47 | 1015.7 |
| 20260501223241 | 7 | 280 | 1.6 | 6.4 | 0.00 | 0.00 | 0.00 | 49 | 1015.6 |
| 20260501222737 | 7 | 296 | 3.2 | 4.8 | 0.00 | 0.00 | 0.00 | 48 | 1015.9 |
| 20260501222234 | 7 | 286 | 4.8 | 9.7 | 0.00 | 0.00 | 0.00 | 48 | 1015.6 |
| 20260501221731 | 7 | 273 | 8.0 | 9.7 | 0.00 | 0.00 | 0.00 | 47 | 1015.7 |